Weather History for Louisville Bowman, KY

Change the Weather History Date:

Monday, May 27, 2013

  Actual Average Record
Temperature  
Mean Temperature 73 °F 70 °F  
Max Temperature 85 °F 80 °F 93 °F (2012)
Min Temperature 61 °F 60 °F 36 °F (1961)
Degree Days  
Heating Degree Days 0 1  
Month to date heating degree days 66 70  
Since 1 July heating degree days 4329 4261  
Cooling Degree Days 8 6  
Month to date cooling degree days 97 89  
Year to date cooling degree days 134 123  
Growing Degree Days 22 (Base 50)    
Moisture  
Dew Point 54 °F    
Average Humidity 52    
Maximum Humidity 72    
Minimum Humidity 32    
Precipitation  
Precipitation 0.00 in 0.15 in 1.31 in (2004)
Month to date precipitation 3.52 4.52  
Year to date precipitation 18.11 19.32  
Sea Level Pressure  
Sea Level Pressure 30.06 in    
Wind  
Wind Speed 6 mph (South)    
Max Wind Speed 17 mph    
Max Gust Speed 25 mph    
Visibility 10 miles    
Events      
T = Trace of Precipitation, MM = Missing Value Source: NWS Daily Summary

Daily Weather History Graph

Daily Weather History Graph

Search for Another Location

Airport:

Trip Planner

Search our weather history database for the weather conditions in past years. The results will help you decide how hot, cold, wet, or windy it might be!

Date:

Astronomy

May. 27, 2013 Rise Set
Actual Time 6:23 AM EDT 8:56 PM EDT
Civil Twilight 5:52 AM EDT 9:27 PM EDT
Nautical Twilight 5:14 AM EDT 10:05 PM EDT
Astronomical Twilight 4:32 AM EDT 10:48 PM EDT
Moon 11:36 PM EDT (5/27) 8:59 AM EDT (5/27)
Length of Visible Light 15h 34m
Length of Day
14h 33m
Waning Gibbous, 91% of the Moon is Illuminated
May 27
Waning Gibbous
May 31
Last Quarter
Jun 8
New
Jun 16
First Quarter
Jun 23
Full

Hourly Weather History & Observations

Time (EDT) Temp. Heat Index Dew Point Humidity Pressure Visibility Wind Dir Wind Speed Gust Speed Precip Events Conditions
12:53 AM 66.0 °F - 51.1 °F 59% 30.16 in 10.0 mi SE 5.8 mph - N/A   Mostly Cloudy
1:53 AM 64.9 °F - 51.1 °F 61% 30.14 in 10.0 mi SE 5.8 mph - N/A   Overcast
2:53 AM 64.9 °F - 51.1 °F 61% 30.13 in 10.0 mi SE 3.5 mph - N/A   Clear
3:53 AM 64.0 °F - 51.1 °F 63% 30.12 in 10.0 mi East 3.5 mph - N/A   Mostly Cloudy
4:53 AM 63.0 °F - 51.1 °F 65% 30.13 in 10.0 mi Calm Calm - N/A   Overcast
5:53 AM 62.1 °F - 51.1 °F 67% 30.13 in 10.0 mi East 4.6 mph - N/A   Scattered Clouds
6:53 AM 61.0 °F - 52.0 °F 72% 30.13 in 10.0 mi Calm Calm - N/A   Clear
7:53 AM 63.0 °F - 53.1 °F 70% 30.14 in 10.0 mi SE 3.5 mph - N/A   Clear
8:53 AM 66.0 °F - 54.0 °F 65% 30.13 in 10.0 mi SSE 6.9 mph - N/A   Clear
9:53 AM 70.0 °F - 55.9 °F 61% 30.11 in 10.0 mi SSE 4.6 mph - N/A   Clear
10:53 AM 75.0 °F - 57.9 °F 55% 30.09 in 10.0 mi Variable 4.6 mph - N/A   Clear
11:53 AM 78.1 °F - 57.9 °F 50% 30.09 in 10.0 mi SSE 6.9 mph - N/A   Clear
12:53 PM 81.0 °F 81.0 °F 57.0 °F 44% 30.07 in 10.0 mi South 11.5 mph 20.7 mph N/A   Partly Cloudy
1:53 PM 82.0 °F 81.3 °F 54.0 °F 38% 30.04 in 10.0 mi SW 6.9 mph 19.6 mph N/A   Clear
2:53 PM 84.0 °F - 51.1 °F 32% 30.02 in 10.0 mi South 10.4 mph 18.4 mph N/A   Clear
3:53 PM 84.9 °F 83.2 °F 53.1 °F 33% 30.02 in 10.0 mi South 10.4 mph 18.4 mph N/A   Partly Cloudy
4:53 PM 84.0 °F 82.5 °F 53.1 °F 34% 30.00 in 10.0 mi South 8.1 mph - N/A   Partly Cloudy
5:53 PM 82.9 °F 81.9 °F 54.0 °F 37% 29.99 in 10.0 mi South 10.4 mph 21.9 mph N/A   Mostly Cloudy
6:53 PM 82.9 °F 82.0 °F 55.0 °F 38% 29.98 in 10.0 mi SSW 12.7 mph 21.9 mph N/A   Partly Cloudy
7:53 PM 81.0 °F 81.1 °F 57.9 °F 45% 29.98 in 10.0 mi South 5.8 mph 18.4 mph N/A   Mostly Cloudy
8:53 PM 80.1 °F 80.6 °F 57.9 °F 47% 29.97 in 10.0 mi South 6.9 mph - N/A   Scattered Clouds
9:53 PM 77.0 °F - 57.9 °F 52% 29.97 in 10.0 mi Variable 3.5 mph - N/A   Clear
10:53 PM 77.0 °F - 57.9 °F 52% 30.00 in 10.0 mi SW 3.5 mph - N/A   Mostly Cloudy
11:53 PM 75.9 °F - 57.9 °F 54% 29.99 in 10.0 mi Variable 3.5 mph - N/A   Partly Cloudy